Private Wetterstation Wechselburg
Wetterdaten: Sonntag, 12.02.2012
Datum Zeit Temp. +2m Bodentemp. Temp.+5cm Temp. Wind Windchill X Diff Temp. Feuchte +2m Feuchte +5cm Sonnenschein Luftdruck Regen Wind Richtung Richtung Sonnenschein UV Taupunkt Windchill Windben
12.02.2012 00:00 -19,7 C -3,0 C -18,9 C -20,9 C -23,2 C 0,0 C 81 % 81 % 0 % 1036,6 hPa 0,0 l/m 0,0 km/h (0 Bft) S 180 0 min 0,0 UV-I -22,1 C -23,2 C 0,0 km/h (0 Bft)
12.02.2012 00:10 -19,7 C -3,0 C -19,1 C -20,8 C -23,0 C 0,0 C 81 % 81 % 0 % 1036,6 hPa 0,0 l/m 0,2 km/h (0 Bft) N 0 0 min 0,0 UV-I -22,1 C -23,0 C 0,0 km/h (0 Bft)
12.02.2012 00:20 -19,9 C -3,0 C -18,9 C -21,0 C -23,3 C 0,0 C 81 % 82 % 0 % 1036,5 hPa 0,0 l/m 0,0 km/h (0 Bft) S 180 0 min 0,0 UV-I -22,3 C -23,3 C 0,0 km/h (0 Bft)
12.02.2012 00:25 -19,9 C -3,2 C -19,2 C -21,0 C -23,3 C 0,0 C 81 % 81 % 0 % 1036,5 hPa 0,0 l/m 0,6 km/h (0 Bft) W-SW 247 0 min 0,0 UV-I -22,3 C -23,3 C 0,0 km/h (0 Bft)
12.02.2012 00:30 -19,9 C -3,2 C -19,3 C -21,0 C -23,3 C 0,0 C 81 % 81 % 0 % 1036,5 hPa 0,0 l/m 0,6 km/h (0 Bft) W-SW 247 0 min 0,0 UV-I -22,3 C -23,3 C 3,1 km/h (1 Bft)
12.02.2012 00:35 -20,0 C -3,2 C -19,3 C -21,1 C -23,3 C 0,0 C 81 % 81 % 0 % 1036,5 hPa 0,0 l/m 0,2 km/h (0 Bft) S-SW 202 0 min 0,0 UV-I -22,4 C -23,3 C 0,0 km/h (0 Bft)
12.02.2012 00:40 -19,9 C -3,2 C -19,3 C -21,0 C -23,3 C 0,0 C 81 % 81 % 0 % 1036,5 hPa 0,0 l/m 0,0 km/h (0 Bft) S-SW 202 0 min 0,0 UV-I -22,3 C -23,3 C 0,0 km/h (0 Bft)
12.02.2012 00:45 -20,1 C -3,2 C -19,3 C -21,2 C -23,5 C 0,0 C 81 % 82 % 0 % 1036,5 hPa 0,0 l/m 0,0 km/h (0 Bft) S 180 0 min 0,0 UV-I -22,5 C -23,5 C 0,0 km/h (0 Bft)
12.02.2012 00:50 -20,1 C -3,2 C -19,3 C -21,2 C -23,5 C 0,0 C 81 % 82 % 0 % 1036,5 hPa 0,0 l/m 0,0 km/h (0 Bft) S 180 0 min 0,0 UV-I -22,5 C -23,5 C 0,0 km/h (0 Bft)
12.02.2012 00:55 -20,1 C -3,2 C -19,3 C -21,3 C -23,7 C 0,0 C 81 % 82 % 0 % 1036,5 hPa 0,0 l/m 0,0 km/h (0 Bft) W-SW 247 0 min 0,0 UV-I -22,5 C -23,7 C 0,0 km/h (0 Bft)
12.02.2012 01:00 -20,1 C -3,2 C -19,3 C -21,2 C -23,5 C 0,0 C 81 % 81 % 0 % 1036,2 hPa 0,0 l/m 0,0 km/h (0 Bft) W-SW 247 0 min 0,0 UV-I -22,5 C -23,5 C 0,0 km/h (0 Bft)
12.02.2012 01:11 -20,3 C -3,3 C -19,3 C -21,5 C -23,8 C 0,0 C 81 % 82 % 0 % 1036,2 hPa 0,0 l/m 0,0 km/h (0 Bft) N 0 0 min 0,0 UV-I -22,7 C -23,8 C 0,0 km/h (0 Bft)
12.02.2012 01:20 -20,5 C -3,3 C -19,7 C -21,7 C -24,0 C 0,0 C 81 % 81 % 0 % 1036,4 hPa 0,0 l/m 0,0 km/h (0 Bft) W-SW 247 0 min 0,0 UV-I -22,9 C -24,0 C 0,0 km/h (0 Bft)
12.02.2012 01:25 -20,5 C -3,3 C -19,7 C -21,6 C -23,8 C 0,0 C 81 % 82 % 0 % 1036,4 hPa 0,0 l/m 0,0 km/h (0 Bft) W-SW 247 0 min 0,0 UV-I -22,9 C -23,8 C 0,0 km/h (0 Bft)
12.02.2012 01:30 -20,5 C -3,3 C -19,7 C -21,6 C -23,8 C 0,0 C 81 % 82 % 0 % 1036,4 hPa 0,0 l/m 0,0 km/h (0 Bft) W-SW 247 0 min 0,0 UV-I -22,9 C -23,8 C 0,0 km/h (0 Bft)
12.02.2012 01:35 -20,5 C -3,3 C -19,7 C -21,6 C -23,8 C 0,0 C 81 % 82 % 0 % 1036,4 hPa 0,0 l/m 0,0 km/h (0 Bft) SW 225 0 min 0,0 UV-I -22,9 C -23,8 C 0,0 km/h (0 Bft)
12.02.2012 01:40 -20,5 C -3,3 C -19,7 C -21,6 C -23,8 C 0,0 C 81 % 82 % 0 % 1036,4 hPa 0,0 l/m 0,0 km/h (0 Bft) SW 225 0 min 0,0 UV-I -22,9 C -23,8 C 0,0 km/h (0 Bft)
12.02.2012 01:45 -20,5 C -3,3 C -19,7 C -21,7 C -24,0 C 0,0 C 81 % 82 % 0 % 1036,4 hPa 0,0 l/m 0,0 km/h (0 Bft) W-SW 247 0 min 0,0 UV-I -22,9 C -24,0 C 0,0 km/h (0 Bft)
12.02.2012 01:50 -20,7 C -3,3 C -19,8 C -21,8 C -24,0 C 0,0 C 81 % 82 % 0 % 1036,4 hPa 0,0 l/m 0,2 km/h (0 Bft) W-SW 247 0 min 0,0 UV-I -23,1 C -24,0 C 2,4 km/h (1 Bft)
12.02.2012 01:55 -20,7 C -3,3 C -19,9 C -21,8 C -24,0 C 0,0 C 81 % 82 % 0 % 1036,4 hPa 0,0 l/m 0,3 km/h (0 Bft) W-SW 247 0 min 0,0 UV-I -23,1 C -24,0 C 0,0 km/h (0 Bft)
12.02.2012 02:00 -20,7 C -3,5 C -19,9 C -21,8 C -24,0 C 0,0 C 81 % 82 % 0 % 1036,2 hPa 0,0 l/m 0,3 km/h (0 Bft) W-SW 247 0 min 0,0 UV-I -23,1 C -24,0 C 0,0 km/h (0 Bft)
12.02.2012 02:11 -20,8 C -3,5 C -20,0 C -21,9 C -24,2 C 0,0 C 81 % 82 % 0 % 1036,2 hPa 0,0 l/m 0,0 km/h (0 Bft) N 0 0 min 0,0 UV-I -23,2 C -24,2 C 0,0 km/h (0 Bft)
12.02.2012 02:20 -20,9 C -3,5 C -20,1 C -22,0 C -24,3 C 0,0 C 81 % 82 % 0 % 1036,2 hPa 0,0 l/m 0,0 km/h (0 Bft) W-SW 247 0 min 0,0 UV-I -23,3 C -24,3 C 0,0 km/h (0 Bft)
12.02.2012 02:25 -20,9 C -3,4 C -20,1 C -22,0 C -24,3 C 0,0 C 81 % 82 % 0 % 1036,2 hPa 0,0 l/m 0,0 km/h (0 Bft) W-SW 247 0 min 0,0 UV-I -23,3 C -24,3 C 0,0 km/h (0 Bft)
12.02.2012 02:30 -20,9 C -3,4 C -20,1 C -22,0 C -24,3 C 0,0 C 81 % 82 % 0 % 1036,2 hPa 0,0 l/m 0,0 km/h (0 Bft) W-SW 247 0 min 0,0 UV-I -23,3 C -24,3 C 0,0 km/h (0 Bft)
12.02.2012 02:35 -21,1 C -3,4 C -20,1 C -22,2 C -24,3 C 0,0 C 81 % 82 % 0 % 1036,2 hPa 0,0 l/m 0,0 km/h (0 Bft) W-SW 247 0 min 0,0 UV-I -23,5 C -24,3 C 0,0 km/h (0 Bft)
12.02.2012 02:40 -21,1 C -3,4 C -20,1 C -22,2 C -24,5 C 0,0 C 81 % 82 % 0 % 1036,2 hPa 0,0 l/m 0,0 km/h (0 Bft) W-SW 247 0 min 0,0 UV-I -23,5 C -24,5 C 0,0 km/h (0 Bft)
12.02.2012 02:45 -21,2 C -3,4 C -20,1 C -22,3 C -24,5 C 0,0 C 81 % 82 % 0 % 1036,2 hPa 0,0 l/m 0,0 km/h (0 Bft) W-SW 247 0 min 0,0 UV-I -23,6 C -24,5 C 0,0 km/h (0 Bft)
12.02.2012 02:50 -21,1 C -3,4 C -20,3 C -22,2 C -24,5 C 0,0 C 81 % 81 % 0 % 1036,2 hPa 0,0 l/m 0,0 km/h (0 Bft) W-SW 247 0 min 0,0 UV-I -23,5 C -24,5 C 0,0 km/h (0 Bft)
12.02.2012 02:55 -21,1 C -3,4 C -20,3 C -22,2 C -24,5 C 0,0 C 81 % 82 % 0 % 1036,2 hPa 0,0 l/m 0,0 km/h (0 Bft) W-SW 247 0 min 0,0 UV-I -23,5 C -24,5 C 0,0 km/h (0 Bft)
12.02.2012 03:00 -21,3 C -3,4 C -20,1 C -22,4 C -24,7 C 0,0 C 81 % 82 % 0 % 1036,2 hPa 0,0 l/m 0,0 km/h (0 Bft) W-SW 247 0 min 0,0 UV-I -23,7 C -24,7 C 0,0 km/h (0 Bft)
12.02.2012 03:14 -21,3 C -3,6 C -20,7 C -22,4 C -24,5 C 0,0 C 81 % 81 % 0 % 1036,2 hPa 0,0 l/m 0,0 km/h (0 Bft) W-SW 247 0 min 0,0 UV-I -23,7 C -24,5 C 0,0 km/h (0 Bft)
12.02.2012 03:15 -21,3 C -3,6 C -20,7 C -22,4 C -24,5 C 0,0 C 81 % 81 % 0 % 1036,2 hPa 0,0 l/m 0,0 km/h (0 Bft) W-SW 247 0 min 0,0 UV-I -23,7 C -24,5 C 0,0 km/h (0 Bft)
12.02.2012 03:19 -21,4 C -3,6 C -20,7 C -22,5 C -24,7 C 0,0 C 81 % 81 % 0 % 1036,2 hPa 0,0 l/m 0,0 km/h (0 Bft) W-SW 247 0 min 0,0 UV-I -23,8 C -24,7 C 0,0 km/h (0 Bft)
12.02.2012 03:23 -21,4 C -3,6 C -20,7 C -22,5 C -24,7 C 0,0 C 81 % 81 % 0 % 1036,2 hPa 0,0 l/m 0,0 km/h (0 Bft) W-SW 247 0 min 0,0 UV-I -23,8 C -24,7 C 0,0 km/h (0 Bft)
12.02.2012 03:25 -21,3 C -3,6 C -20,7 C -22,4 C -24,7 C 0,0 C 81 % 81 % 0 % 1036,2 hPa 0,0 l/m 0,0 km/h (0 Bft) W-SW 247 0 min 0,0 UV-I -23,7 C -24,7 C 0,0 km/h (0 Bft)
12.02.2012 03:30 -21,3 C -3,6 C -20,7 C -22,4 C -24,7 C 0,0 C 81 % 81 % 0 % 1036,2 hPa 0,0 l/m 0,0 km/h (0 Bft) W-SW 247 0 min 0,0 UV-I -23,7 C -24,7 C 0,0 km/h (0 Bft)
12.02.2012 03:35 -21,5 C -3,6 C -20,7 C -22,6 C -24,7 C 0,0 C 81 % 81 % 0 % 1036,2 hPa 0,0 l/m 0,0 km/h (0 Bft) SW 225 0 min 0,0 UV-I -23,9 C -24,7 C 0,0 km/h (0 Bft)
12.02.2012 03:40 -21,5 C -3,7 C -20,7 C -22,6 C -24,7 C 0,0 C 81 % 81 % 0 % 1036,0 hPa 0,0 l/m 0,2 km/h (0 Bft) SW 225 0 min 0,0 UV-I -23,9 C -24,7 C 0,0 km/h (0 Bft)
12.02.2012 03:45 -21,5 C -3,7 C -20,7 C -22,6 C -24,7 C 0,0 C 81 % 82 % 0 % 1036,0 hPa 0,0 l/m 0,8 km/h (0 Bft) S-SW 202 0 min 0,0 UV-I -23,9 C -24,7 C 3,5 km/h (1 Bft)
12.02.2012 03:50 -21,3 C -3,7 C -20,5 C -22,7 C -25,5 C 0,0 C 81 % 82 % 0 % 1036,0 hPa 0,0 l/m 1,9 km/h (1 Bft) S 180 0 min 0,0 UV-I -23,7 C -25,5 C 1,9 km/h (1 Bft)
12.02.2012 03:55 -21,3 C -3,7 C -20,5 C -22,4 C -24,6 C 0,0 C 82 % 82 % 0 % 1036,0 hPa 0,0 l/m 1,6 km/h (1 Bft) S 180 0 min 0,0 UV-I -23,5 C -24,6 C 4,2 km/h (1 Bft)
12.02.2012 04:00 -21,3 C -3,7 C -20,5 C -22,3 C -24,3 C 0,0 C 82 % 82 % 0 % 1036,0 hPa 0,0 l/m 1,0 km/h (0 Bft) S-SW 202 0 min 0,0 UV-I -23,5 C -24,3 C 2,3 km/h (1 Bft)
12.02.2012 04:07 -21,3 C -3,7 C -20,5 C -22,3 C -24,3 C 0,0 C 81 % 82 % 0 % 1036,0 hPa 0,0 l/m 1,1 km/h (1 Bft) N 0 0 min 0,0 UV-I -23,7 C -24,3 C 0,0 km/h (0 Bft)
12.02.2012 04:20 -21,3 C -3,7 C -20,5 C -22,3 C -24,3 C 0,0 C 81 % 82 % 0 % 1036,0 hPa 0,0 l/m 1,1 km/h (1 Bft) S 180 0 min 0,0 UV-I -23,7 C -24,3 C 0,0 km/h (0 Bft)
12.02.2012 04:25 -21,3 C -3,7 C -20,5 C -22,3 C -24,3 C 0,0 C 82 % 82 % 0 % 1036,0 hPa 0,0 l/m 0,5 km/h (0 Bft) S 180 0 min 0,0 UV-I -23,5 C -24,3 C 4,5 km/h (1 Bft)
12.02.2012 04:30 -21,4 C -3,7 C -20,6 C -22,4 C -24,5 C 0,0 C 81 % 82 % 0 % 1036,0 hPa 0,0 l/m 0,5 km/h (0 Bft) S 180 0 min 0,0 UV-I -23,8 C -24,5 C 0,0 km/h (0 Bft)
12.02.2012 04:35 -21,3 C -3,7 C -20,5 C -22,4 C -24,7 C 0,0 C 81 % 82 % 0 % 1036,0 hPa 0,0 l/m 0,0 km/h (0 Bft) S 180 0 min 0,0 UV-I -23,7 C -24,7 C 0,0 km/h (0 Bft)
12.02.2012 04:40 -21,5 C -3,7 C -20,5 C -22,6 C -24,7 C 0,0 C 81 % 82 % 0 % 1036,0 hPa 0,0 l/m 0,0 km/h (0 Bft) S 180 0 min 0,0 UV-I -23,9 C -24,7 C 0,0 km/h (0 Bft)
12.02.2012 04:45 -21,5 C -3,8 C -20,5 C -22,6 C -24,7 C 0,0 C 81 % 82 % 0 % 1036,0 hPa 0,0 l/m 0,0 km/h (0 Bft) S 180 0 min 0,0 UV-I -23,9 C -24,7 C 0,0 km/h (0 Bft)
12.02.2012 04:50 -21,6 C -3,8 C -20,8 C -22,7 C -24,8 C 0,0 C 81 % 82 % 0 % 1036,0 hPa 0,0 l/m 0,0 km/h (0 Bft) S 180 0 min 0,0 UV-I -24,0 C -24,8 C 0,0 km/h (0 Bft)
12.02.2012 04:55 -21,5 C -3,8 C -20,9 C -22,6 C -24,8 C 0,0 C 81 % 81 % 0 % 1036,0 hPa 0,0 l/m 0,6 km/h (0 Bft) W-SW 247 0 min 0,0 UV-I -23,9 C -24,8 C 0,0 km/h (0 Bft)
12.02.2012 05:00 -21,7 C -3,8 C -20,9 C -22,7 C -24,8 C 0,0 C 81 % 81 % 0 % 1036,0 hPa 0,0 l/m 0,6 km/h (0 Bft) W-SW 247 0 min 0,0 UV-I -24,1 C -24,8 C 0,0 km/h (0 Bft)
12.02.2012 05:11 -21,7 C -3,8 C -20,9 C -22,9 C -25,2 C 0,0 C 81 % 81 % 0 % 1036,0 hPa 0,0 l/m 0,0 km/h (0 Bft) N 0 0 min 0,0 UV-I -24,1 C -25,2 C 0,0 km/h (0 Bft)
12.02.2012 05:20 -21,9 C -3,8 C -21,0 C -23,0 C -25,2 C 0,0 C 81 % 81 % 0 % 1036,0 hPa 0,0 l/m 0,0 km/h (0 Bft) S 180 0 min 0,0 UV-I -24,3 C -25,2 C 0,0 km/h (0 Bft)
12.02.2012 05:25 -21,9 C -3,8 C -21,1 C -23,0 C -25,2 C 0,0 C 81 % 81 % 0 % 1036,0 hPa 0,0 l/m 0,0 km/h (0 Bft) W-SW 247 0 min 0,0 UV-I -24,3 C -25,2 C 0,0 km/h (0 Bft)
12.02.2012 05:30 -21,9 C -3,8 C -21,2 C -23,0 C -25,2 C 0,0 C 81 % 81 % 0 % 1036,0 hPa 0,0 l/m 0,3 km/h (0 Bft) W-SW 247 0 min 0,0 UV-I -24,3 C -25,2 C 0,0 km/h (0 Bft)
12.02.2012 05:35 -21,9 C -3,8 C -21,2 C -22,9 C -25,0 C 0,0 C 81 % 81 % 0 % 1036,0 hPa 0,0 l/m 0,5 km/h (0 Bft) S-SW 202 0 min 0,0 UV-I -24,3 C -25,0 C 0,0 km/h (0 Bft)
12.02.2012 05:40 -21,9 C -4,0 C -21,1 C -22,9 C -25,0 C 0,0 C 81 % 81 % 0 % 1036,0 hPa 0,0 l/m 0,3 km/h (0 Bft) SW 225 0 min 0,0 UV-I -24,3 C -25,0 C 0,0 km/h (0 Bft)
12.02.2012 05:45 -22,0 C -4,0 C -21,1 C -23,0 C -25,0 C 0,0 C 81 % 81 % 0 % 1036,0 hPa 0,0 l/m 0,0 km/h (0 Bft) SW 225 0 min 0,0 UV-I -24,4 C -25,0 C 0,0 km/h (0 Bft)
12.02.2012 05:50 -22,0 C -4,0 C -21,1 C -23,0 C -25,0 C 0,0 C 81 % 81 % 0 % 1036,0 hPa 0,0 l/m 0,0 km/h (0 Bft) W-SW 247 0 min 0,0 UV-I -24,4 C -25,0 C 0,0 km/h (0 Bft)
12.02.2012 05:55 -22,0 C -4,0 C -21,1 C -22,9 C -24,8 C 0,0 C 81 % 81 % 0 % 1036,0 hPa 0,0 l/m 0,3 km/h (0 Bft) W-SW 247 0 min 0,0 UV-I -24,4 C -24,8 C 0,0 km/h (0 Bft)
12.02.2012 06:00 -22,0 C -4,0 C -20,9 C -22,9 C -24,8 C 0,0 C 81 % 82 % 0 % 1036,0 hPa 0,0 l/m 0,3 km/h (0 Bft) S 180 0 min 0,0 UV-I -24,4 C -24,8 C 0,0 km/h (0 Bft)
12.02.2012 06:11 -21,9 C -4,0 C -21,2 C -22,9 C -24,8 C 0,0 C 81 % 81 % 0 % 1036,0 hPa 0,0 l/m 0,5 km/h (0 Bft) N 0 0 min 0,0 UV-I -24,3 C -24,8 C 1,9 km/h (1 Bft)
12.02.2012 06:20 -21,9 C -4,0 C -21,3 C -22,9 C -24,8 C 0,0 C 81 % 81 % 0 % 1036,0 hPa 0,0 l/m 0,3 km/h (0 Bft) W-SW 247 0 min 0,0 UV-I -24,3 C -24,8 C 0,0 km/h (0 Bft)
12.02.2012 06:25 -22,0 C -4,0 C -21,3 C -23,0 C -25,0 C 0,0 C 81 % 81 % 0 % 1036,0 hPa 0,0 l/m 0,0 km/h (0 Bft) W-SW 247 0 min 0,0 UV-I -24,4 C -25,0 C 0,0 km/h (0 Bft)
12.02.2012 06:30 -22,0 C -4,0 C -21,3 C -23,0 C -25,0 C 0,0 C 81 % 81 % 0 % 1036,0 hPa 0,0 l/m 0,0 km/h (0 Bft) S-SW 202 0 min 0,0 UV-I -24,4 C -25,0 C 0,0 km/h (0 Bft)
12.02.2012 06:35 -22,1 C -4,0 C -21,3 C -23,1 C -25,0 C 0,0 C 81 % 82 % 0 % 1036,0 hPa 0,0 l/m 0,0 km/h (0 Bft) S-SW 202 0 min 0,0 UV-I -24,5 C -25,0 C 0,0 km/h (0 Bft)
12.02.2012 06:40 -22,1 C -4,0 C -21,2 C -23,1 C -25,0 C 0,0 C 81 % 82 % 0 % 1036,0 hPa 0,0 l/m 0,0 km/h (0 Bft) S 180 0 min 0,0 UV-I -24,5 C -25,0 C 0,0 km/h (0 Bft)
12.02.2012 06:45 -22,1 C -4,0 C -21,2 C -23,1 C -25,0 C 0,0 C 81 % 82 % 0 % 1036,0 hPa 0,0 l/m 0,0 km/h (0 Bft) W-SW 247 0 min 0,0 UV-I -24,5 C -25,0 C 0,0 km/h (0 Bft)
12.02.2012 06:50 -22,1 C -4,0 C -21,1 C -23,1 C -25,0 C 0,0 C 81 % 82 % 0 % 1036,0 hPa 0,0 l/m 0,0 km/h (0 Bft) W-SW 247 0 min 0,0 UV-I -24,5 C -25,0 C 0,0 km/h (0 Bft)
12.02.2012 06:55 -22,1 C -4,0 C -21,1 C -23,1 C -25,2 C 0,0 C 81 % 82 % 0 % 1036,0 hPa 0,0 l/m 0,0 km/h (0 Bft) W-SW 247 0 min 0,0 UV-I -24,5 C -25,2 C 0,0 km/h (0 Bft)
12.02.2012 07:00 -22,1 C -4,1 C -21,1 C -23,1 C -25,2 C 0,0 C 81 % 82 % 0 % 1036,0 hPa 0,0 l/m 0,0 km/h (0 Bft) W-SW 247 0 min 0,0 UV-I -24,5 C -25,2 C 0,0 km/h (0 Bft)
12.02.2012 07:11 -21,9 C -4,1 C -20,9 C -22,9 C -24,8 C 0,0 C 81 % 82 % 0 % 1036,0 hPa 0,0 l/m 0,0 km/h (0 Bft) N 0 0 min 0,0 UV-I -24,3 C -24,8 C 0,0 km/h (0 Bft)
12.02.2012 07:20 -22,0 C -4,1 C -20,9 C -22,9 C -24,8 C 0,0 C 81 % 82 % 0 % 1036,0 hPa 0,0 l/m 0,2 km/h (0 Bft) W-SW 247 0 min 0,0 UV-I -24,4 C -24,8 C 0,0 km/h (0 Bft)
12.02.2012 07:25 -22,0 C -4,1 C -20,9 C -22,9 C -24,8 C 0,0 C 81 % 81 % 0 % 1036,0 hPa 0,0 l/m 0,2 km/h (0 Bft) S 180 0 min 0,0 UV-I -24,4 C -24,8 C 0,0 km/h (0 Bft)
12.02.2012 07:30 -22,0 C -4,1 C -21,0 C -22,9 C -24,8 C 0,0 C 81 % 82 % 0 % 1036,0 hPa 0,0 l/m 0,0 km/h (0 Bft) SW 225 0 min 0,0 UV-I -24,4 C -24,8 C 0,0 km/h (0 Bft)
12.02.2012 07:35 -22,0 C -4,1 C -20,9 C -22,9 C -24,8 C 0,0 C 81 % 81 % 0 % 1036,0 hPa 0,0 l/m 0,2 km/h (0 Bft) W-SW 247 0 min 0,0 UV-I -24,4 C -24,8 C 2,4 km/h (1 Bft)
12.02.2012 07:40 -22,0 C -4,1 C -21,1 C -22,9 C -24,8 C 0,0 C 81 % 81 % 0 % 1036,0 hPa 0,0 l/m 0,2 km/h (0 Bft) W-SW 247 0 min 0,0 UV-I -24,4 C -24,8 C 0,0 km/h (0 Bft)
12.02.2012 07:45 -22,0 C -4,1 C -20,9 C -22,9 C -24,8 C 0,0 C 81 % 81 % 0 % 1036,0 hPa 0,0 l/m 0,2 km/h (0 Bft) SW 225 0 min 0,0 UV-I -24,4 C -24,8 C 0,0 km/h (0 Bft)
12.02.2012 07:50 -21,9 C -4,1 C -20,8 C -22,8 C -24,7 C 0,0 C 81 % 82 % 0 % 1036,0 hPa 0,0 l/m 0,0 km/h (0 Bft) S 180 0 min 0,0 UV-I -24,3 C -24,7 C 0,0 km/h (0 Bft)
12.02.2012 07:55 -21,7 C -4,3 C -20,6 C -22,6 C -24,3 C 0,0 C 81 % 82 % 0 % 1036,0 hPa 0,0 l/m 0,0 km/h (0 Bft) W-SW 247 0 min 0,0 UV-I -24,1 C -24,3 C 0,0 km/h (0 Bft)
12.02.2012 08:00 -21,8 C -4,3 C -20,5 C -22,5 C -24,0 C 0,0 C 81 % 82 % 0 % 1036,0 hPa 0,0 l/m 0,0 km/h (0 Bft) S-SW 202 0 min 0,0 UV-I -24,2 C -24,0 C 0,0 km/h (0 Bft)
12.02.2012 08:10 -21,6 C -4,3 C -20,3 C -22,1 C -23,2 C 0,0 C 82 % 81 % 0 % 1036,0 hPa 0,0 l/m 0,0 km/h (0 Bft) N 0 0 min 0,0 UV-I -23,8 C -23,2 C 0,0 km/h (0 Bft)
12.02.2012 08:20 -21,3 C -4,3 C -20,1 C -21,7 C -22,6 C 0,0 C 82 % 82 % 0 % 1036,0 hPa 0,0 l/m 0,8 km/h (0 Bft) SO 135 0 min 0,0 UV-I -23,5 C -22,6 C 2,3 km/h (1 Bft)
12.02.2012 08:25 -21,1 C -4,3 C -20,1 C -21,5 C -22,3 C 0,0 C 82 % 82 % 0 % 1036,0 hPa 0,0 l/m 1,0 km/h (0 Bft) S 180 0 min 0,0 UV-I -23,3 C -22,3 C 0,0 km/h (0 Bft)
12.02.2012 08:30 -21,1 C -4,3 C -20,0 C -21,4 C -22,1 C 0,0 C 82 % 82 % 0 % 1036,0 hPa 0,0 l/m 0,5 km/h (0 Bft) S-SW 202 0 min 0,0 UV-I -23,3 C -22,1 C 0,0 km/h (0 Bft)
12.02.2012 08:35 -20,9 C -4,3 C -19,7 C -21,3 C -22,0 C 0,0 C 82 % 82 % 0 % 1036,0 hPa 0,0 l/m 0,2 km/h (0 Bft) SW 225 0 min 0,0 UV-I -23,1 C -22,0 C 0,0 km/h (0 Bft)
12.02.2012 08:40 -20,8 C -4,3 C -19,5 C -21,1 C -21,8 C 0,0 C 82 % 82 % 0 % 1036,0 hPa 0,0 l/m 0,5 km/h (0 Bft) S 180 0 min 0,0 UV-I -23,0 C -21,8 C 0,0 km/h (0 Bft)
12.02.2012 08:45 -20,5 C -4,3 C -19,3 C -21,3 C -22,9 C 0,0 C 83 % 82 % 0 % 1036,0 hPa 0,0 l/m 2,3 km/h (1 Bft) S-SO 157 0 min 0,0 UV-I -22,6 C -22,9 C 5,6 km/h (1 Bft)
12.02.2012 08:50 -20,5 C -4,3 C -19,3 C -21,5 C -23,6 C 0,0 C 83 % 82 % 0 % 1036,0 hPa 0,0 l/m 3,1 km/h (1 Bft) S 180 0 min 0,0 UV-I -22,6 C -23,6 C 1,9 km/h (1 Bft)
12.02.2012 08:55 -20,3 C -4,3 C -19,1 C -21,1 C -22,7 C 0,0 C 83 % 82 % 0 % 1036,0 hPa 0,0 l/m 3,1 km/h (1 Bft) W-SW 247 0 min 0,0 UV-I -22,4 C -22,7 C 4,3 km/h (1 Bft)
12.02.2012 09:00 -20,1 C -4,3 C -18,9 C -20,8 C -22,3 C 0,0 C 83 % 82 % 0 % 1036,0 hPa 0,0 l/m 2,7 km/h (1 Bft) S 180 0 min 0,0 UV-I -22,2 C -22,3 C 3,5 km/h (1 Bft)
12.02.2012 09:10 -19,7 C -4,3 C -18,6 C -20,7 C -22,6 C 0,0 C 83 % 82 % 0 % 1036,0 hPa 0,0 l/m 3,4 km/h (1 Bft) N 0 0 min 0,0 UV-I -21,8 C -22,6 C 6,1 km/h (2 Bft)
12.02.2012 09:20 -19,2 C -4,3 C -17,9 C -19,1 C -19,1 C 0,1 C 84 % 82 % 3 % 1036,0 hPa 0,0 l/m 1,9 km/h (1 Bft) S 180 0 min 0,0 UV-I -21,2 C -19,1 C 7,4 km/h (2 Bft)
12.02.2012 09:25 -18,9 C -4,3 C -17,7 C -18,9 C -18,9 C 0,0 C 84 % 81 % 0 % 1036,0 hPa 0,0 l/m 2,3 km/h (1 Bft) SW 225 0 min 0,0 UV-I -20,9 C -18,9 C 6,6 km/h (2 Bft)
12.02.2012 09:30 -18,8 C -4,4 C -17,3 C -18,9 C -19,1 C 0,0 C 84 % 82 % 0 % 1036,0 hPa 0,0 l/m 2,7 km/h (1 Bft) W-SW 247 0 min 0,0 UV-I -20,8 C -19,1 C 0,0 km/h (0 Bft)
12.02.2012 09:35 -18,5 C -4,4 C -17,1 C -19,0 C -19,9 C 0,0 C 84 % 82 % 0 % 1036,0 hPa 0,0 l/m 3,5 km/h (1 Bft) W-SW 247 0 min 0,0 UV-I -20,5 C -19,9 C 6,4 km/h (2 Bft)
12.02.2012 09:40 -18,3 C -4,4 C -17,1 C -18,8 C -19,8 C 0,0 C 84 % 82 % 0 % 1036,0 hPa 0,0 l/m 3,4 km/h (1 Bft) SW 225 0 min 0,0 UV-I -20,3 C -19,8 C 4,3 km/h (1 Bft)
12.02.2012 09:45 -18,1 C -4,2 C -16,9 C -18,4 C -18,9 C 0,0 C 84 % 82 % 0 % 1036,0 hPa 0,0 l/m 2,7 km/h (1 Bft) S-SW 202 0 min 0,0 UV-I -20,1 C -18,9 C 3,4 km/h (1 Bft)
12.02.2012 09:50 -18,0 C -4,2 C -16,7 C -17,3 C -17,3 C 0,7 C 85 % 82 % 18 % 1036,0 hPa 0,0 l/m 1,9 km/h (1 Bft) SO 135 0 min 0,0 UV-I -19,9 C -17,3 C 0,0 km/h (0 Bft)
12.02.2012 09:55 -17,7 C -4,2 C -16,3 C -15,6 C -15,6 C 2,1 C 85 % 83 % 55 % 1036,0 hPa 0,0 l/m 1,1 km/h (1 Bft) S 180 0 min 0,0 UV-I -19,6 C -15,6 C 0,0 km/h (0 Bft)
12.02.2012 10:00 -17,5 C -4,3 C -16,3 C -15,1 C -15,1 C 2,4 C 85 % 82 % 63 % 1036,0 hPa 0,0 l/m 1,8 km/h (1 Bft) S 180 0 min 0,0 UV-I -19,4 C -15,1 C 6,1 km/h (2 Bft)
12.02.2012 10:15 -16,9 C -4,3 C -15,5 C -17,3 C -18,2 C 0,0 C 85 % 83 % 0 % 1036,0 hPa 0,0 l/m 4,8 km/h (1 Bft) SW 225 0 min 0,0 UV-I -18,8 C -22,1 C 9,3 km/h (2 Bft)
12.02.2012 10:18 -16,9 C -4,3 C -15,5 C -17,3 C -18,2 C 0,0 C 85 % 83 % 0 % 1036,0 hPa 0,0 l/m 4,8 km/h (1 Bft) SW 225 0 min 0,0 UV-I -18,8 C -22,1 C 4,7 km/h (1 Bft)
12.02.2012 10:25 -16,7 C -4,3 C -15,3 C -17,1 C -17,8 C 0,0 C 85 % 83 % 0 % 1036,0 hPa 0,0 l/m 4,0 km/h (1 Bft) SW 225 0 min 0,0 UV-I -18,6 C -17,8 C 5,5 km/h (1 Bft)
12.02.2012 10:30 -16,5 C -4,3 C -15,3 C -17,1 C -18,4 C 0,0 C 85 % 83 % 0 % 1036,0 hPa 0,0 l/m 4,8 km/h (1 Bft) W-SW 247 0 min 0,0 UV-I -18,4 C -22,3 C 5,5 km/h (1 Bft)
12.02.2012 10:35 -16,5 C -4,3 C -15,1 C -17,2 C -18,7 C 0,0 C 85 % 83 % 0 % 1036,0 hPa 0,0 l/m 5,1 km/h (1 Bft) W-SW 247 0 min 0,0 UV-I -18,4 C -22,9 C 5,1 km/h (1 Bft)
12.02.2012 10:40 -16,5 C -4,3 C -15,1 C -17,0 C -17,9 C 0,0 C 85 % 83 % 0 % 1036,0 hPa 0,0 l/m 4,2 km/h (1 Bft) SW 225 0 min 0,0 UV-I -18,4 C -17,9 C 3,7 km/h (1 Bft)
12.02.2012 10:45 -16,1 C -4,3 C -14,9 C -16,0 C -16,0 C 0,1 C 85 % 83 % 3 % 1036,0 hPa 0,0 l/m 2,6 km/h (1 Bft) S 180 0 min 0,0 UV-I -18,0 C -16,0 C 1,8 km/h (1 Bft)
12.02.2012 10:50 -16,1 C -4,3 C -14,9 C -15,3 C -15,3 C 0,8 C 85 % 82 % 21 % 1036,0 hPa 0,0 l/m 2,1 km/h (1 Bft) SW 225 0 min 0,0 UV-I -18,0 C -15,3 C 2,9 km/h (1 Bft)
12.02.2012 10:55 -16,0 C -4,3 C -14,9 C -16,2 C -16,7 C 0,0 C 85 % 82 % 0 % 1036,0 hPa 0,0 l/m 3,2 km/h (1 Bft) S-SO 157 0 min 0,0 UV-I -17,9 C -16,7 C 6,4 km/h (2 Bft)
12.02.2012 11:00 -16,0 C -4,3 C -14,9 C -16,3 C -17,0 C 0,0 C 85 % 83 % 0 % 1036,0 hPa 0,0 l/m 3,9 km/h (1 Bft) SW 225 0 min 0,0 UV-I -17,9 C -17,0 C 6,3 km/h (2 Bft)
12.02.2012 11:11 -15,7 C -4,3 C -14,3 C -15,2 C -15,2 C 0,5 C 85 % 83 % 13 % 1036,0 hPa 0,0 l/m 2,6 km/h (1 Bft) N 0 0 min 0,0 UV-I -17,6 C -15,2 C 8,2 km/h (2 Bft)
12.02.2012 11:20 -15,2 C -4,3 C -14,1 C -13,6 C -13,6 C 1,6 C 85 % 83 % 42 % 1036,0 hPa 0,0 l/m 1,9 km/h (1 Bft) S-SW 202 0 min 0,0 UV-I -17,1 C -13,6 C 2,6 km/h (1 Bft)
12.02.2012 11:25 -14,9 C -4,3 C -14,0 C -12,8 C -12,8 C 2,1 C 85 % 83 % 55 % 1036,0 hPa 0,0 l/m 1,8 km/h (1 Bft) S 180 0 min 0,0 UV-I -16,8 C -12,8 C 4,7 km/h (1 Bft)
12.02.2012 11:30 -14,8 C -4,3 C -14,0 C -13,9 C -13,9 C 0,9 C 85 % 83 % 24 % 1036,0 hPa 0,0 l/m 2,6 km/h (1 Bft) S-SW 202 0 min 0,0 UV-I -16,7 C -13,9 C 2,7 km/h (1 Bft)
12.02.2012 11:35 -14,5 C -4,3 C -13,9 C -13,6 C -13,6 C 0,9 C 85 % 83 % 24 % 1036,0 hPa 0,0 l/m 2,7 km/h (1 Bft) S-SO 157 0 min 0,0 UV-I -16,4 C -13,6 C 5,0 km/h (1 Bft)
12.02.2012 11:40 -14,1 C -4,3 C -13,7 C -11,5 C -11,5 C 2,6 C 86 % 83 % 68 % 1036,0 hPa 0,0 l/m 1,9 km/h (1 Bft) S 180 0 min 0,0 UV-I -15,9 C -11,5 C 4,2 km/h (1 Bft)
12.02.2012 11:45 -13,9 C -4,3 C -13,6 C -9,8 C -9,8 C 4,1 C 85 % 83 % 100 % 1036,0 hPa 0,0 l/m 1,3 km/h (1 Bft) S 180 5 min 0,0 UV-I -15,9 C -9,8 C 1,9 km/h (1 Bft)
12.02.2012 11:50 -13,7 C -4,3 C -13,3 C -9,4 C -9,4 C 4,3 C 85 % 83 % 100 % 1036,0 hPa 0,0 l/m 1,4 km/h (1 Bft) S-SO 157 5 min 0,0 UV-I -15,7 C -9,4 C 5,8 km/h (2 Bft)
12.02.2012 11:55 -13,7 C -4,3 C -13,3 C -10,3 C -10,3 C 3,4 C 84 % 83 % 89 % 1036,0 hPa 0,0 l/m 2,6 km/h (1 Bft) NW 315 5 min 0,0 UV-I -15,8 C -10,3 C 2,1 km/h (1 Bft)
12.02.2012 12:00 -13,7 C -4,3 C -13,2 C -10,9 C -10,9 C 2,8 C 84 % 83 % 74 % 1036,0 hPa 0,0 l/m 3,7 km/h (1 Bft) SO 135 0 min 0,0 UV-I -15,8 C -10,9 C 4,2 km/h (1 Bft)
12.02.2012 12:11 -13,5 C -4,3 C -12,9 C -9,5 C -9,5 C 4,0 C 83 % 83 % 100 % 1036,0 hPa 0,0 l/m 3,1 km/h (1 Bft) N 0 11 min 0,0 UV-I -15,8 C -9,5 C 6,0 km/h (2 Bft)
12.02.2012 12:20 -13,3 C -4,3 C -12,7 C -10,8 C -10,8 C 2,5 C 83 % 82 % 66 % 1036,0 hPa 0,0 l/m 4,5 km/h (1 Bft) W-SW 247 0 min 0,0 UV-I -15,6 C -10,8 C 7,2 km/h (2 Bft)
12.02.2012 12:25 -13,3 C -4,3 C -12,5 C -10,9 C -10,9 C 2,4 C 83 % 82 % 63 % 1036,0 hPa 0,0 l/m 4,0 km/h (1 Bft) S 180 0 min 0,0 UV-I -15,6 C -10,9 C 8,0 km/h (2 Bft)
12.02.2012 12:30 -12,9 C -4,3 C -12,4 C -10,6 C -10,6 C 2,3 C 83 % 82 % 61 % 1036,0 hPa 0,0 l/m 3,9 km/h (1 Bft) W-SW 247 0 min 0,0 UV-I -15,2 C -10,6 C 6,6 km/h (2 Bft)
12.02.2012 12:35 -12,8 C -4,3 C -12,1 C -11,2 C -11,2 C 1,6 C 81 % 81 % 42 % 1036,0 hPa 0,0 l/m 4,7 km/h (1 Bft) W-SW 247 0 min 0,0 UV-I -15,4 C -14,1 C 5,0 km/h (1 Bft)
12.02.2012 12:40 -12,5 C -4,3 C -12,0 C -12,3 C -12,3 C 0,2 C 81 % 81 % 5 % 1036,0 hPa 0,0 l/m 5,5 km/h (1 Bft) W-SW 247 0 min 0,0 UV-I -15,1 C -15,9 C 6,3 km/h (2 Bft)
12.02.2012 12:45 -12,3 C -4,3 C -11,7 C -12,1 C -12,1 C 0,2 C 80 % 80 % 5 % 1036,0 hPa 0,0 l/m 5,3 km/h (1 Bft) W-SW 247 0 min 0,0 UV-I -15,0 C -15,5 C 9,8 km/h (2 Bft)
12.02.2012 12:50 -12,3 C -4,2 C -11,5 C -12,1 C -12,1 C 0,2 C 79 % 80 % 5 % 1036,0 hPa 0,0 l/m 5,3 km/h (1 Bft) SW 225 0 min 0,0 UV-I -15,2 C -15,5 C 8,9 km/h (2 Bft)
12.02.2012 12:55 -12,1 C -4,2 C -11,5 C -12,1 C -12,1 C 0,0 C 79 % 80 % 0 % 1036,0 hPa 0,0 l/m 5,3 km/h (1 Bft) SW 225 0 min 0,0 UV-I -15,0 C -15,5 C 5,6 km/h (1 Bft)
12.02.2012 13:00 -11,9 C -4,2 C -11,3 C -11,9 C -11,9 C 0,0 C 78 % 79 % 0 % 1036,0 hPa 0,0 l/m 5,6 km/h (1 Bft) SW 225 0 min 0,0 UV-I -14,9 C -15,5 C 8,7 km/h (2 Bft)
12.02.2012 13:11 -11,5 C -4,2 C -10,9 C -10,8 C -10,8 C 0,7 C 78 % 78 % 18 % 1036,0 hPa 0,0 l/m 6,0 km/h (2 Bft) N 0 0 min 0,0 UV-I -14,5 C -14,4 C 10,6 km/h (2 Bft)
12.02.2012 13:20 -10,9 C -4,2 C -10,7 C -6,9 C -6,9 C 4,0 C 77 % 77 % 100 % 1036,0 hPa 0,0 l/m 3,4 km/h (1 Bft) W-SW 247 9 min 0,0 UV-I -14,1 C -6,9 C 5,3 km/h (1 Bft)
12.02.2012 13:25 -10,8 C -4,2 C -10,4 C -7,2 C -7,2 C 3,6 C 76 % 78 % 95 % 1036,0 hPa 0,0 l/m 4,3 km/h (1 Bft) SW 225 5 min 0,0 UV-I -14,2 C -7,2 C 5,0 km/h (1 Bft)
12.02.2012 13:30 -10,5 C -4,1 C -10,1 C -7,3 C -7,3 C 3,2 C 76 % 77 % 84 % 1036,0 hPa 0,0 l/m 4,8 km/h (1 Bft) W-SW 247 0 min 0,0 UV-I -13,9 C -9,8 C 4,7 km/h (1 Bft)
12.02.2012 13:35 -10,4 C -4,1 C -9,7 C -6,2 C -6,2 C 4,2 C 76 % 78 % 100 % 1036,0 hPa 0,0 l/m 3,9 km/h (1 Bft) W 270 5 min 0,0 UV-I -13,8 C -6,2 C 0,0 km/h (0 Bft)
12.02.2012 13:40 -10,1 C -4,1 C -9,7 C -4,6 C -4,6 C 5,5 C 76 % 76 % 100 % 1036,0 hPa 0,0 l/m 2,7 km/h (1 Bft) W 270 5 min 0,0 UV-I -13,5 C -4,6 C 5,1 km/h (1 Bft)
12.02.2012 13:45 -9,6 C -4,1 C -9,5 C -4,1 C -4,1 C 5,5 C 75 % 77 % 100 % 1036,0 hPa 0,0 l/m 2,4 km/h (1 Bft) SW 225 5 min 0,0 UV-I -13,2 C -4,1 C 2,6 km/h (1 Bft)
12.02.2012 13:50 -9,1 C -4,1 C -9,3 C -5,4 C -5,4 C 3,7 C 74 % 77 % 97 % 1036,0 hPa 0,0 l/m 4,0 km/h (1 Bft) W-SW 247 5 min 0,0 UV-I -12,9 C -5,4 C 7,6 km/h (2 Bft)
12.02.2012 13:55 -9,2 C -4,1 C -8,9 C -6,1 C -6,1 C 3,1 C 73 % 76 % 82 % 1036,0 hPa 0,0 l/m 4,7 km/h (1 Bft) SW 225 0 min 0,0 UV-I -13,1 C -8,3 C 4,5 km/h (1 Bft)
12.02.2012 14:00 -9,1 C -3,9 C -8,9 C -6,4 C -6,4 C 2,7 C 72 % 75 % 71 % 1036,0 hPa 0,0 l/m 5,0 km/h (1 Bft) W-SW 247 0 min 0,0 UV-I -13,2 C -8,8 C 6,8 km/h (2 Bft)
12.02.2012 14:11 -8,9 C -3,9 C -8,8 C -6,7 C -6,7 C 2,2 C 71 % 74 % 58 % 1036,0 hPa 0,0 l/m 5,5 km/h (1 Bft) N 0 0 min 0,0 UV-I -13,2 C -9,5 C 4,3 km/h (1 Bft)
12.02.2012 14:20 -8,6 C -4,0 C -8,5 C -6,7 C -6,7 C 1,9 C 71 % 74 % 50 % 1031,7 hPa 0,0 l/m 5,1 km/h (1 Bft) W-SW 247 0 min 0,0 UV-I -12,9 C -9,2 C 9,5 km/h (2 Bft)
12.02.2012 14:25 -8,5 C -4,0 C -7,7 C -7,0 C -7,0 C 1,5 C 70 % 75 % 39 % 1031,7 hPa 0,0 l/m 5,8 km/h (2 Bft) W-SW 247 0 min 0,0 UV-I -13,0 C -10,0 C 9,7 km/h (2 Bft)
12.02.2012 14:30 -8,5 C -3,8 C -6,1 C -7,5 C -7,5 C 1,0 C 70 % 71 % 26 % 1031,7 hPa 0,0 l/m 6,6 km/h (2 Bft) W-SW 247 0 min 0,0 UV-I -13,0 C -10,9 C 7,6 km/h (2 Bft)
12.02.2012 14:35 -8,5 C -3,8 C -4,3 C -8,2 C -8,2 C 0,3 C 69 % 66 % 8 % 1031,7 hPa 0,0 l/m 7,6 km/h (2 Bft) W-SW 247 0 min 0,0 UV-I -13,1 C -12,2 C 10,8 km/h (2 Bft)
12.02.2012 14:40 -8,4 C -3,8 C -3,7 C -8,2 C -8,2 C 0,2 C 68 % 63 % 5 % 1031,7 hPa 0,0 l/m 7,2 km/h (2 Bft) SW 225 0 min 0,0 UV-I -13,2 C -12,0 C 6,8 km/h (2 Bft)
12.02.2012 14:45 -8,3 C -3,8 C -2,9 C -7,9 C -7,9 C 0,4 C 68 % 60 % 11 % 1031,7 hPa 0,0 l/m 6,9 km/h (2 Bft) SW 225 0 min 0,0 UV-I -13,1 C -11,5 C 10,9 km/h (2 Bft)
12.02.2012 14:50 -8,1 C -3,8 C -2,5 C -7,4 C -7,4 C 0,7 C 69 % 60 % 18 % 1031,7 hPa 0,0 l/m 6,0 km/h (2 Bft) W-SW 247 0 min 0,0 UV-I -12,8 C -10,5 C 6,3 km/h (2 Bft)
12.02.2012 14:55 -7,9 C -3,8 C -1,7 C -7,1 C -7,1 C 0,8 C 67 % 56 % 21 % 1031,7 hPa 0,0 l/m 5,8 km/h (2 Bft) W-SW 247 0 min 0,0 UV-I -12,9 C -10,1 C 7,4 km/h (2 Bft)
12.02.2012 15:00 -7,9 C -3,8 C -1,7 C -7,4 C -7,4 C 0,5 C 67 % 55 % 13 % 1031,7 hPa 0,0 l/m 6,1 km/h (2 Bft) SW 225 0 min 0,0 UV-I -12,9 C -10,6 C 9,0 km/h (2 Bft)
12.02.2012 15:11 -7,7 C -3,7 C -1,7 C -7,3 C -7,3 C 0,4 C 66 % 54 % 11 % 1031,7 hPa 0,0 l/m 6,1 km/h (2 Bft) N 0 0 min 0,0 UV-I -12,9 C -10,5 C 6,1 km/h (2 Bft)
12.02.2012 15:20 -7,3 C -3,7 C -3,7 C -6,1 C -6,1 C 1,2 C 65 % 54 % 32 % 1031,7 hPa 0,0 l/m 4,5 km/h (1 Bft) S-SW 202 0 min 0,0 UV-I -12,7 C -6,1 C 5,1 km/h (1 Bft)
12.02.2012 15:25 -7,4 C -3,7 C -5,3 C -5,8 C -5,8 C 1,6 C 64 % 57 % 42 % 1031,7 hPa 0,0 l/m 4,3 km/h (1 Bft) W 270 0 min 0,0 UV-I -13,0 C -5,8 C 4,0 km/h (1 Bft)
12.02.2012 15:30 -7,3 C -3,7 C -5,7 C -5,8 C -5,8 C 1,5 C 64 % 58 % 39 % 1031,7 hPa 0,0 l/m 4,5 km/h (1 Bft) W-SW 247 0 min 0,0 UV-I -12,9 C -5,8 C 5,5 km/h (1 Bft)
12.02.2012 15:35 -7,1 C -3,7 C -6,1 C -4,9 C -4,9 C 2,2 C 64 % 60 % 58 % 1031,7 hPa 0,0 l/m 3,5 km/h (1 Bft) SW 225 0 min 0,0 UV-I -12,7 C -4,9 C 3,2 km/h (1 Bft)
12.02.2012 15:40 -7,0 C -3,7 C -6,5 C -4,7 C -4,7 C 2,3 C 63 % 60 % 61 % 1031,7 hPa 0,0 l/m 3,4 km/h (1 Bft) SW 225 5 min 0,0 UV-I -12,8 C -4,7 C 5,0 km/h (1 Bft)
12.02.2012 15:45 -7,1 C -3,7 C -6,5 C -5,3 C -5,3 C 1,8 C 62 % 61 % 47 % 1031,7 hPa 0,0 l/m 4,0 km/h (1 Bft) SW 225 0 min 0,0 UV-I -13,1 C -5,3 C 4,8 km/h (1 Bft)
12.02.2012 15:50 -7,3 C -3,7 C -6,7 C -5,4 C -5,4 C 1,9 C 62 % 62 % 50 % 1031,7 hPa 0,0 l/m 4,0 km/h (1 Bft) W-SW 247 0 min 0,0 UV-I -13,3 C -5,4 C 3,1 km/h (1 Bft)
12.02.2012 15:55 -7,5 C -3,5 C -6,9 C -5,2 C -5,2 C 2,3 C 63 % 63 % 61 % 1031,7 hPa 0,0 l/m 3,4 km/h (1 Bft) W-SW 247 5 min 0,0 UV-I -13,3 C -5,2 C 3,4 km/h (1 Bft)
12.02.2012 16:00 -7,3 C -3,5 C -6,9 C -4,5 C -4,5 C 2,8 C 64 % 63 % 74 % 1031,7 hPa 0,0 l/m 2,6 km/h (1 Bft) S 180 5 min 0,0 UV-I -12,9 C -4,5 C 1,6 km/h (1 Bft)
12.02.2012 16:11 -7,1 C -3,5 C -7,2 C -4,0 C -4,0 C 3,1 C 64 % 64 % 82 % 1031,7 hPa 0,0 l/m 1,6 km/h (1 Bft) N 0 11 min 0,0 UV-I -12,7 C -4,0 C 0,0 km/h (0 Bft)
12.02.2012 16:20 -7,1 C -3,5 C -7,5 C -4,1 C -4,1 C 3,0 C 63 % 65 % 79 % 1031,7 hPa 0,0 l/m 1,8 km/h (1 Bft) S 180 9 min 0,0 UV-I -12,9 C -4,1 C 4,3 km/h (1 Bft)
12.02.2012 16:25 -7,1 C -3,5 C -7,5 C -4,7 C -4,7 C 2,4 C 63 % 65 % 63 % 1031,7 hPa 0,0 l/m 2,3 km/h (1 Bft) S 180 5 min 0,0 UV-I -12,9 C -4,7 C 3,4 km/h (1 Bft)
12.02.2012 16:30 -7,3 C -3,5 C -7,5 C -4,6 C -4,6 C 2,7 C 63 % 65 % 71 % 1031,7 hPa 0,0 l/m 1,8 km/h (1 Bft) S-SO 157 5 min 0,0 UV-I -13,1 C -4,6 C 1,8 km/h (1 Bft)
12.02.2012 16:35 -7,3 C -3,5 C -7,6 C -4,9 C -4,9 C 2,4 C 63 % 65 % 63 % 1031,7 hPa 0,0 l/m 1,4 km/h (1 Bft) SW 225 5 min 0,0 UV-I -13,1 C -4,9 C 2,1 km/h (1 Bft)
12.02.2012 16:39 -7,3 C -3,5 C -7,6 C -5,4 C -5,4 C 1,9 C 64 % 66 % 50 % 1031,7 hPa 0,0 l/m 1,8 km/h (1 Bft) SW 225 4 min 0,0 UV-I -12,9 C -5,4 C 3,4 km/h (1 Bft)
12.02.2012 16:41 -7,3 C -3,5 C -7,6 C -5,4 C -5,4 C 1,9 C 64 % 66 % 50 % 1031,7 hPa 0,0 l/m 1,8 km/h (1 Bft) SW 225 2 min 0,0 UV-I -12,9 C -5,4 C 3,4 km/h (1 Bft)
12.02.2012 16:45 -7,5 C -3,5 C -7,7 C -5,7 C -5,7 C 1,8 C 64 % 66 % 47 % 1031,7 hPa 0,0 l/m 1,1 km/h (1 Bft) SW 225 4 min 0,0 UV-I -13,1 C -5,7 C 4,2 km/h (1 Bft)
12.02.2012 16:50 -7,5 C -3,5 C -7,7 C -5,9 C -5,9 C 1,6 C 64 % 66 % 42 % 1031,7 hPa 0,0 l/m 1,6 km/h (1 Bft) W-SW 247 5 min 0,0 UV-I -13,1 C -5,9 C 3,1 km/h (1 Bft)
12.02.2012 16:55 -7,5 C -3,5 C -7,9 C -7,2 C -7,2 C 0,3 C 63 % 67 % 8 % 1031,7 hPa 0,0 l/m 2,9 km/h (1 Bft) W-SW 247 0 min 0,0 UV-I -13,3 C -7,2 C 1,6 km/h (1 Bft)
12.02.2012 17:00 -7,6 C -3,5 C -8,0 C -7,1 C -7,1 C 0,5 C 64 % 67 % 13 % 1031,7 hPa 0,0 l/m 2,4 km/h (1 Bft) W-SW 247 5 min 0,0 UV-I -13,2 C -7,1 C 2,3 km/h (1 Bft)
12.02.2012 17:11 -7,9 C -3,4 C -8,3 C -8,0 C -8,2 C 0,0 C 64 % 68 % 0 % 1031,7 hPa 0,0 l/m 1,6 km/h (1 Bft) N 0 0 min 0,0 UV-I -13,5 C -8,2 C 1,6 km/h (1 Bft)
12.02.2012 17:20 -8,3 C -3,4 C -8,7 C -8,7 C -9,5 C 0,0 C 65 % 68 % 0 % 1031,7 hPa 0,0 l/m 0,0 km/h (0 Bft) W-SW 247 0 min 0,0 UV-I -13,7 C -9,5 C 0,0 km/h (0 Bft)
12.02.2012 17:25 -8,6 C -3,4 C -8,9 C -9,1 C -10,2 C 0,0 C 65 % 69 % 0 % 1031,7 hPa 0,0 l/m 0,0 km/h (0 Bft) W 270 0 min 0,0 UV-I -14,0 C -10,2 C 0,0 km/h (0 Bft)
12.02.2012 17:30 -8,9 C -3,4 C -9,1 C -9,5 C -10,8 C 0,0 C 65 % 69 % 0 % 1031,7 hPa 0,0 l/m 0,0 km/h (0 Bft) SW 225 0 min 0,0 UV-I -14,3 C -10,8 C 0,0 km/h (0 Bft)
12.02.2012 17:35 -9,3 C -3,4 C -9,7 C -10,0 C -11,3 C 0,0 C 66 % 69 % 0 % 1031,7 hPa 0,0 l/m 0,0 km/h (0 Bft) SW 225 0 min 0,0 UV-I -14,4 C -11,3 C 0,0 km/h (0 Bft)
12.02.2012 17:40 -9,5 C -3,4 C -9,7 C -10,2 C -11,6 C 0,0 C 67 % 70 % 0 % 1031,7 hPa 0,0 l/m 0,0 km/h (0 Bft) S-SW 202 0 min 0,0 UV-I -14,5 C -11,6 C 0,0 km/h (0 Bft)
12.02.2012 17:45 -9,7 C -3,3 C -10,1 C -10,4 C -11,8 C 0,0 C 67 % 70 % 0 % 1031,7 hPa 0,0 l/m 0,0 km/h (0 Bft) S-SW 202 0 min 0,0 UV-I -14,6 C -11,8 C 0,0 km/h (0 Bft)
12.02.2012 17:50 -9,9 C -3,3 C -10,3 C -10,6 C -11,9 C 0,0 C 68 % 71 % 0 % 1031,7 hPa 0,0 l/m 0,0 km/h (0 Bft) SW 225 0 min 0,0 UV-I -14,7 C -11,9 C 0,0 km/h (0 Bft)
12.02.2012 17:55 -10,1 C -3,3 C -10,3 C -10,9 C -12,4 C 0,0 C 69 % 71 % 0 % 1031,7 hPa 0,0 l/m 0,0 km/h (0 Bft) SW 225 0 min 0,0 UV-I -14,7 C -12,4 C 0,0 km/h (0 Bft)
12.02.2012 18:00 -10,3 C -3,3 C -10,5 C -11,1 C -12,7 C 0,0 C 69 % 71 % 0 % 1031,7 hPa 0,0 l/m 0,0 km/h (0 Bft) SW 225 0 min 0,0 UV-I -14,9 C -12,7 C 0,0 km/h (0 Bft)
12.02.2012 18:11 -10,7 C -3,2 C -10,9 C -11,6 C -13,3 C 0,0 C 70 % 72 % 0 % 1031,7 hPa 0,0 l/m 0,0 km/h (0 Bft) N 0 0 min 0,0 UV-I -15,1 C -13,3 C 0,0 km/h (0 Bft)
12.02.2012 18:20 -11,3 C -3,2 C -11,3 C -12,0 C -13,5 C 0,0 C 71 % 73 % 0 % 1031,7 hPa 0,0 l/m 0,0 km/h (0 Bft) S-SW 202 0 min 0,0 UV-I -15,5 C -13,5 C 0,0 km/h (0 Bft)
12.02.2012 18:25 -11,5 C -3,2 C -11,6 C -12,2 C -13,5 C 0,0 C 72 % 74 % 0 % 1031,7 hPa 0,0 l/m 0,0 km/h (0 Bft) S-SW 202 0 min 0,0 UV-I -15,5 C -13,5 C 0,0 km/h (0 Bft)
12.02.2012 18:30 -11,5 C -3,2 C -11,7 C -12,2 C -13,6 C 0,0 C 72 % 74 % 0 % 1031,7 hPa 0,0 l/m 0,0 km/h (0 Bft) S-SW 202 0 min 0,0 UV-I -15,5 C -13,6 C 0,0 km/h (0 Bft)
12.02.2012 18:35 -11,9 C -3,2 C -11,9 C -12,6 C -14,0 C 0,0 C 72 % 74 % 0 % 1031,7 hPa 0,0 l/m 0,0 km/h (0 Bft) SW 225 0 min 0,0 UV-I -15,9 C -14,0 C 0,0 km/h (0 Bft)
12.02.2012 18:40 -12,0 C -3,2 C -12,0 C -12,7 C -14,1 C 0,0 C 73 % 74 % 0 % 1031,7 hPa 0,0 l/m 0,0 km/h (0 Bft) SW 225 0 min 0,0 UV-I -15,8 C -14,1 C 0,0 km/h (0 Bft)
12.02.2012 18:45 -12,1 C -3,2 C -12,1 C -12,7 C -14,0 C 0,0 C 73 % 75 % 0 % 1031,7 hPa 0,0 l/m 0,0 km/h (0 Bft) W-SW 247 0 min 0,0 UV-I -15,9 C -14,0 C 0,0 km/h (0 Bft)
12.02.2012 18:50 -12,2 C -3,2 C -12,1 C -12,8 C -14,1 C 0,0 C 74 % 75 % 0 % 1031,7 hPa 0,0 l/m 0,0 km/h (0 Bft) W 270 0 min 0,0 UV-I -15,9 C -14,1 C 0,0 km/h (0 Bft)
12.02.2012 18:55 -12,3 C -3,2 C -12,3 C -13,0 C -14,4 C 0,0 C 74 % 76 % 0 % 1031,7 hPa 0,0 l/m 0,0 km/h (0 Bft) W 270 0 min 0,0 UV-I -16,0 C -14,4 C 0,0 km/h (0 Bft)
12.02.2012 19:00 -12,3 C -3,2 C -12,5 C -13,0 C -14,5 C 0,0 C 74 % 76 % 0 % 1031,7 hPa 0,0 l/m 0,0 km/h (0 Bft) W 270 0 min 0,0 UV-I -16,0 C -14,5 C 0,0 km/h (0 Bft)
12.02.2012 19:11 -12,8 C -3,2 C -12,7 C -13,4 C -14,6 C 0,0 C 75 % 76 % 0 % 1031,7 hPa 0,0 l/m 0,0 km/h (0 Bft) N 0 0 min 0,0 UV-I -16,3 C -14,6 C 0,0 km/h (0 Bft)
12.02.2012 19:20 -12,8 C -3,2 C -12,9 C -13,3 C -14,4 C 0,0 C 76 % 76 % 0 % 1031,7 hPa 0,0 l/m 0,0 km/h (0 Bft) S 180 0 min 0,0 UV-I -16,1 C -14,4 C 1,9 km/h (1 Bft)
12.02.2012 19:25 -12,7 C -3,2 C -12,7 C -13,1 C -13,9 C 0,0 C 77 % 78 % 0 % 1031,7 hPa 0,0 l/m 1,1 km/h (1 Bft) W-SW 247 0 min 0,0 UV-I -15,9 C -13,9 C 1,6 km/h (1 Bft)
12.02.2012 19:30 -12,6 C -3,2 C -12,5 C -13,0 C -13,8 C 0,0 C 77 % 78 % 0 % 1031,7 hPa 0,0 l/m 1,3 km/h (1 Bft) W-SW 247 0 min 0,0 UV-I -15,8 C -13,8 C 0,0 km/h (0 Bft)
12.02.2012 19:35 -12,5 C -3,2 C -12,5 C -12,9 C -13,7 C 0,0 C 77 % 78 % 0 % 1031,7 hPa 0,0 l/m 0,5 km/h (0 Bft) W 270 0 min 0,0 UV-I -15,7 C -13,7 C 0,0 km/h (0 Bft)
12.02.2012 19:40 -12,5 C -3,2 C -12,5 C -12,8 C -13,5 C 0,0 C 77 % 79 % 0 % 1031,7 hPa 0,0 l/m 0,2 km/h (0 Bft) SW 225 0 min 0,0 UV-I -15,7 C -13,5 C 0,0 km/h (0 Bft)
12.02.2012 19:45 -12,5 C -3,2 C -12,3 C -12,7 C -13,2 C 0,0 C 77 % 79 % 0 % 1031,7 hPa 0,0 l/m 0,0 km/h (0 Bft) SW 225 0 min 0,0 UV-I -15,7 C -13,2 C 0,0 km/h (0 Bft)
12.02.2012 19:50 -12,5 C -3,2 C -12,3 C -12,6 C -12,9 C 0,0 C 77 % 79 % 0 % 1031,7 hPa 0,0 l/m 0,0 km/h (0 Bft) SW 225 0 min 0,0 UV-I -15,7 C -12,9 C 0,0 km/h (0 Bft)
12.02.2012 19:55 -12,3 C -3,2 C -12,1 C -12,3 C -12,4 C 0,0 C 77 % 79 % 0 % 1031,7 hPa 0,0 l/m 0,0 km/h (0 Bft) NW 315 0 min 0,0 UV-I -15,5 C -12,4 C 0,0 km/h (0 Bft)
12.02.2012 20:00 -12,1 C -3,2 C -11,9 C -12,2 C -12,3 C 0,0 C 77 % 80 % 0 % 1031,7 hPa 0,0 l/m 0,0 km/h (0 Bft) NW 315 0 min 0,0 UV-I -15,3 C -12,3 C 0,0 km/h (0 Bft)
12.02.2012 20:11 -11,8 C -3,2 C -11,6 C -11,8 C -11,8 C 0,0 C 77 % 80 % 0 % 1031,7 hPa 0,0 l/m 0,0 km/h (0 Bft) N 0 0 min 0,0 UV-I -15,0 C -11,8 C 0,0 km/h (0 Bft)
12.02.2012 20:20 -11,6 C -3,3 C -11,3 C -11,6 C -11,7 C 0,0 C 77 % 79 % 0 % 1031,7 hPa 0,0 l/m 0,0 km/h (0 Bft) NW 315 0 min 0,0 UV-I -14,8 C -11,7 C 0,0 km/h (0 Bft)
12.02.2012 20:25 -11,3 C -3,3 C -11,4 C -11,4 C -11,7 C 0,0 C 76 % 79 % 0 % 1031,7 hPa 0,0 l/m 0,0 km/h (0 Bft) NW 315 0 min 0,0 UV-I -14,7 C -11,7 C 0,0 km/h (0 Bft)
12.02.2012 20:30 -11,3 C -3,3 C -11,3 C -11,5 C -11,8 C 0,0 C 76 % 78 % 0 % 1031,7 hPa 0,0 l/m 0,0 km/h (0 Bft) NW 315 0 min 0,0 UV-I -14,7 C -11,8 C 0,0 km/h (0 Bft)
12.02.2012 20:35 -11,3 C -3,3 C -11,5 C -11,5 C -11,9 C 0,0 C 76 % 78 % 0 % 1031,7 hPa 0,0 l/m 0,0 km/h (0 Bft) NW 315 0 min 0,0 UV-I -14,7 C -11,9 C 0,0 km/h (0 Bft)
12.02.2012 20:40 -11,3 C -3,3 C -11,5 C -11,5 C -11,9 C 0,0 C 75 % 78 % 0 % 1031,7 hPa 0,0 l/m 0,0 km/h (0 Bft) NW 315 0 min 0,0 UV-I -14,8 C -11,9 C 0,0 km/h (0 Bft)
12.02.2012 20:45 -11,3 C -3,3 C -11,5 C -11,5 C -11,9 C 0,0 C 75 % 78 % 0 % 1031,7 hPa 0,0 l/m 0,0 km/h (0 Bft) W-NW 292 0 min 0,0 UV-I -14,8 C -11,9 C 0,0 km/h (0 Bft)
12.02.2012 20:50 -11,3 C -3,3 C -11,5 C -11,5 C -11,9 C 0,0 C 75 % 78 % 0 % 1031,7 hPa 0,0 l/m 0,0 km/h (0 Bft) SW 225 0 min 0,0 UV-I -14,8 C -11,9 C 0,0 km/h (0 Bft)
12.02.2012 20:55 -11,3 C -3,3 C -11,5 C -11,5 C -11,9 C 0,0 C 75 % 78 % 0 % 1031,7 hPa 0,0 l/m 0,0 km/h (0 Bft) SW 225 0 min 0,0 UV-I -14,8 C -11,9 C 0,0 km/h (0 Bft)
12.02.2012 21:00 -11,3 C -3,3 C -11,5 C -11,5 C -11,9 C 0,0 C 75 % 78 % 0 % 1031,7 hPa 0,0 l/m 0,0 km/h (0 Bft) SW 225 0 min 0,0 UV-I -14,8 C -11,9 C 0,0 km/h (0 Bft)
12.02.2012 21:11 -11,2 C -3,3 C -11,3 C -11,4 C -11,7 C 0,0 C 76 % 79 % 0 % 1031,7 hPa 0,0 l/m 0,0 km/h (0 Bft) N 0 0 min 0,0 UV-I -14,6 C -11,7 C 0,0 km/h (0 Bft)
12.02.2012 21:20 -10,9 C -3,3 C -11,1 C -11,0 C -11,2 C 0,0 C 76 % 79 % 0 % 1031,7 hPa 0,0 l/m 0,0 km/h (0 Bft) S 180 0 min 0,0 UV-I -14,3 C -11,2 C 0,0 km/h (0 Bft)
12.02.2012 21:25 -10,8 C -3,3 C -10,8 C -10,8 C -10,8 C 0,0 C 76 % 79 % 0 % 1031,7 hPa 0,0 l/m 0,0 km/h (0 Bft) S-SW 202 0 min 0,0 UV-I -14,2 C -10,8 C 0,0 km/h (0 Bft)
12.02.2012 21:30 -10,7 C -3,3 C -10,6 C -10,6 C -10,6 C 0,1 C 76 % 79 % 0 % 1031,7 hPa 0,0 l/m 0,0 km/h (0 Bft) S 180 0 min 0,0 UV-I -14,1 C -10,6 C 0,0 km/h (0 Bft)
12.02.2012 21:35 -10,5 C -3,3 C -10,4 C -10,4 C -10,4 C 0,1 C 76 % 79 % 0 % 1031,7 hPa 0,0 l/m 0,3 km/h (0 Bft) S 180 0 min 0,0 UV-I -13,9 C -10,4 C 0,0 km/h (0 Bft)
12.02.2012 21:40 -10,5 C -3,3 C -10,3 C -10,2 C -10,2 C 0,3 C 76 % 79 % 0 % 1031,7 hPa 0,0 l/m 0,3 km/h (0 Bft) S-SW 202 0 min 0,0 UV-I -13,9 C -10,2 C 0,0 km/h (0 Bft)
12.02.2012 21:45 -10,4 C -3,3 C -10,1 C -10,1 C -10,1 C 0,3 C 76 % 79 % 0 % 1031,7 hPa 0,0 l/m 0,0 km/h (0 Bft) S-SO 157 0 min 0,0 UV-I -13,8 C -10,1 C 0,0 km/h (0 Bft)
12.02.2012 21:50 -10,3 C -3,3 C -10,1 C -10,0 C -10,0 C 0,3 C 76 % 79 % 0 % 1031,7 hPa 0,0 l/m 0,0 km/h (0 Bft) S 180 0 min 0,0 UV-I -13,7 C -10,0 C 0,0 km/h (0 Bft)
12.02.2012 21:55 -10,1 C -3,4 C -9,9 C -9,8 C -9,8 C 0,3 C 75 % 79 % 0 % 1031,7 hPa 0,0 l/m 0,2 km/h (0 Bft) SW 225 0 min 0,0 UV-I -13,7 C -9,8 C 0,0 km/h (0 Bft)
12.02.2012 22:00 -10,1 C -3,4 C -9,8 C -9,7 C -9,7 C 0,4 C 75 % 79 % 0 % 1031,7 hPa 0,0 l/m 0,2 km/h (0 Bft) S-SW 202 0 min 0,0 UV-I -13,7 C -9,7 C 0,0 km/h (0 Bft)
12.02.2012 22:05 -9,9 C -3,4 C -9,7 C -9,6 C -9,6 C 0,3 C 75 % 78 % 0 % 1031,7 hPa 0,0 l/m 0,0 km/h (0 Bft) S 180 0 min 0,0 UV-I -13,5 C -9,6 C 0,0 km/h (0 Bft)
12.02.2012 22:10 -9,9 C -3,4 C -9,6 C -9,5 C -9,5 C 0,4 C 75 % 78 % 0 % 1031,7 hPa 0,0 l/m 0,0 km/h (0 Bft) S 180 0 min 0,0 UV-I -13,5 C -9,5 C 0,0 km/h (0 Bft)
12.02.2012 22:15 -9,7 C -3,4 C -9,5 C -9,4 C -9,4 C 0,3 C 75 % 78 % 0 % 1031,7 hPa 0,0 l/m 0,0 km/h (0 Bft) S-SO 157 0 min 0,0 UV-I -13,3 C -9,4 C 0,0 km/h (0 Bft)
12.02.2012 22:20 -9,7 C -3,4 C -9,3 C -9,3 C -9,3 C 0,4 C 75 % 78 % 0 % 1031,7 hPa 0,0 l/m 0,0 km/h (0 Bft) S-SW 202 0 min 0,0 UV-I -13,3 C -9,3 C 2,7 km/h (1 Bft)
12.02.2012 22:25 -9,3 C -3,4 C -9,1 C -9,0 C -9,0 C 0,3 C 75 % 78 % 0 % 1031,7 hPa 0,0 l/m 1,3 km/h (1 Bft) S-SO 157 0 min 0,0 UV-I -12,9 C -9,0 C 0,0 km/h (0 Bft)
12.02.2012 22:30 -9,1 C -3,4 C -8,9 C -9,1 C -9,2 C 0,0 C 74 % 77 % 0 % 1031,7 hPa 0,0 l/m 2,1 km/h (1 Bft) SW 225 0 min 0,0 UV-I -12,9 C -9,2 C 1,9 km/h (1 Bft)
12.02.2012 22:35 -8,9 C -3,4 C -8,7 C -8,7 C -8,7 C 0,2 C 74 % 77 % 0 % 1031,7 hPa 0,0 l/m 1,3 km/h (1 Bft) SO 135 0 min 0,0 UV-I -12,7 C -8,7 C 0,0 km/h (0 Bft)
12.02.2012 22:40 -8,7 C -3,4 C -8,7 C -8,6 C -8,6 C 0,1 C 74 % 77 % 0 % 1031,7 hPa 0,0 l/m 0,6 km/h (0 Bft) SO 135 0 min 0,0 UV-I -12,5 C -8,6 C 0,0 km/h (0 Bft)
12.02.2012 22:45 -8,8 C -3,4 C -8,5 C -8,6 C -8,6 C 0,2 C 74 % 76 % 0 % 1031,7 hPa 0,0 l/m 0,0 km/h (0 Bft) SO 135 0 min 0,0 UV-I -12,6 C -8,6 C 0,0 km/h (0 Bft)
12.02.2012 22:50 -8,7 C -3,4 C -8,6 C -8,6 C -8,6 C 0,1 C 74 % 76 % 0 % 1031,7 hPa 0,0 l/m 0,0 km/h (0 Bft) S-SO 157 0 min 0,0 UV-I -12,5 C -8,6 C 0,0 km/h (0 Bft)
12.02.2012 22:55 -8,5 C -3,4 C -8,5 C -8,4 C -8,4 C 0,1 C 73 % 76 % 0 % 1031,7 hPa 0,0 l/m 0,0 km/h (0 Bft) SO 135 0 min 0,0 UV-I -12,4 C -8,4 C 0,0 km/h (0 Bft)
12.02.2012 23:00 -8,5 C -3,4 C -8,4 C -8,3 C -8,3 C 0,2 C 73 % 76 % 0 % 1031,7 hPa 0,0 l/m 0,2 km/h (0 Bft) NW 315 0 min 0,0 UV-I -12,4 C -8,3 C 1,8 km/h (1 Bft)
12.02.2012 23:11 -8,1 C -3,4 C -8,1 C -8,1 C -8,1 C 0,0 C 73 % 76 % 0 % 1031,7 hPa 0,0 l/m 0,3 km/h (0 Bft) N 0 0 min 0,0 UV-I -12,1 C -8,1 C 0,0 km/h (0 Bft)
12.02.2012 23:20 -8,1 C -3,4 C -8,0 C -7,9 C -7,9 C 0,2 C 73 % 76 % 0 % 1028,1 hPa 0,0 l/m 0,0 km/h (0 Bft) S 180 0 min 0,0 UV-I -12,1 C -7,9 C 0,0 km/h (0 Bft)
12.02.2012 23:25 -8,0 C -3,4 C -7,9 C -7,8 C -7,8 C 0,2 C 73 % 76 % 0 % 1028,1 hPa 0,0 l/m 0,0 km/h (0 Bft) SO 135 0 min 0,0 UV-I -12,0 C -7,8 C 0,0 km/h (0 Bft)
12.02.2012 23:30 -7,9 C -3,4 C -7,9 C -7,8 C -7,8 C 0,1 C 73 % 76 % 0 % 1028,1 hPa 0,0 l/m 0,0 km/h (0 Bft) SO 135 0 min 0,0 UV-I -11,9 C -7,8 C 0,0 km/h (0 Bft)
12.02.2012 23:35 -7,9 C -3,4 C -7,8 C -7,7 C -7,7 C 0,2 C 72 % 76 % 0 % 1028,1 hPa 0,0 l/m 0,0 km/h (0 Bft) S 180 0 min 0,0 UV-I -12,0 C -7,7 C 0,0 km/h (0 Bft)
12.02.2012 23:40 -7,7 C -3,4 C -7,7 C -7,7 C -7,7 C 0,0 C 72 % 77 % 0 % 1028,1 hPa 0,0 l/m 0,0 km/h (0 Bft) S 180 0 min 0,0 UV-I -11,8 C -7,7 C 0,0 km/h (0 Bft)
12.02.2012 23:45 -7,7 C -3,4 C -7,7 C -7,7 C -7,7 C 0,0 C 72 % 77 % 0 % 1028,1 hPa 0,0 l/m 0,0 km/h (0 Bft) S 180 0 min 0,0 UV-I -11,8 C -7,7 C 0,0 km/h (0 Bft)
12.02.2012 23:50 -7,7 C -3,4 C -7,5 C -7,6 C -7,6 C 0,1 C 72 % 77 % 0 % 1028,1 hPa 0,0 l/m 0,0 km/h (0 Bft) S-SW 202 0 min 0,0 UV-I -11,8 C -7,6 C 0,0 km/h (0 Bft)
12.02.2012 23:55 -7,6 C -3,3 C -7,5 C -7,4 C -7,4 C 0,2 C 72 % 76 % 0 % 1028,1 hPa 0,0 l/m 1,0 km/h (0 Bft) SW 225 0 min 0,0 UV-I -11,8 C -7,4 C 0,0 km/h (0 Bft)
_ Min-Zeit 06:35 09:30 06:20 06:35 03:50 00:00 15:45 15:11 00:00 23:20 - 00:00 - - - 00:00 06:35 03:50 00:00
Minimum _ -22,1 C -4,4 C -21,3 C -23,1 C -25,5 C 0,0 C 62 % 54 % 0 % 1028,1 hPa - 0,0 km/h (0 Bft) - - - 0,0 UV-I -24,5 C -25,5 C 0,0 km/h (0 Bft)
_ Max-Zeit 15:40 00:00 14:55 16:11 16:11 13:40 11:40 09:55 11:45 00:00 00:00 14:35 - - 12:11 00:00 23:55 16:11 14:45
Maximum _ -7,0 C -3,0 C -1,7 C -4,0 C -4,0 C 5,5 C 86 % 83 % 100 % 1036,6 hPa 0,0 l/m 7,6 km/h
W-SW (2 Bft)
- - 11 min 0,0 UV-I -11,8 C -4,0 C 10,9 km/h
SW (2 Bft)
Durchschnitt _ -15,0 C -3,7 C -14,3 C -14,9 C -15,9 C 0,5 C 77 % 78 % 13 % 1034,2 hPa #0,0 l/m 1,4 km/h (1 Bft) W-SW - #2:10 h 0,0 UV-I -18,2 C -16,3 C 2,0 km/h (1 Bft)
2012 www.wetterstation-wechselburg.de